| time (UTC) | temp F | wind direction | speed knots | gust knots | rain 1hr in | rain 24hr in | rain mn in | humidity % | barometer mb |
| 20260503211233 | 80 | 315 | 2.6 | 7.8 | 0.00 | 0.00 | 0.00 | 40 | 1013.4 |
| 20260503210721 | 80 | 300 | 1.7 | 3.5 | 0.00 | 0.00 | 0.00 | 40 | 1013.4 |
| 20260503210229 | 79 | 42 | 0.9 | 7.8 | 0.00 | 0.00 | 0.00 | 41 | 1013.4 |
| 20260503205736 | 79 | 32 | 2.6 | 7.8 | 0.00 | 0.00 | 0.00 | 42 | 1013.5 |
| 20260503205224 | 79 | 297 | 3.5 | 5.2 | 0.00 | 0.00 | 0.00 | 41 | 1013.5 |
| 20260503204812 | 79 | 20 | 1.7 | 5.2 | 0.00 | 0.00 | 0.00 | 41 | 1013.6 |
| 20260503204740 | 79 | 20 | 1.7 | 5.2 | 0.00 | 0.00 | 0.00 | 41 | 1013.6 |
| 20260503204307 | 79 | 9 | 1.7 | 4.3 | 0.00 | 0.00 | 0.00 | 42 | 1013.6 |
| 20260503203804 | 79 | 52 | 0.9 | 6.1 | 0.00 | 0.00 | 0.00 | 42 | 1013.6 |
| 20260503203732 | 79 | 52 | 0.9 | 6.1 | 0.00 | 0.00 | 0.00 | 42 | 1013.6 |
| 20260503203240 | 79 | 50 | 1.7 | 7.0 | 0.00 | 0.00 | 0.00 | 42 | 1013.6 |
| 20260503202807 | 78 | 43 | 1.7 | 7.0 | 0.00 | 0.00 | 0.00 | 42 | 1013.8 |
| 20260503202224 | 78 | 292 | 1.7 | 4.3 | 0.00 | 0.00 | 0.00 | 43 | 1013.8 |
| 20260503201732 | 78 | 355 | 2.6 | 8.7 | 0.00 | 0.00 | 0.00 | 43 | 1013.8 |
| 20260503201240 | 77 | 328 | 3.5 | 8.7 | 0.00 | 0.00 | 0.00 | 45 | 1013.8 |
| 20260503200732 | 77 | 312 | 1.7 | 8.7 | 0.00 | 0.00 | 0.00 | 45 | 1013.9 |
| 20260503200239 | 76 | 331 | 2.6 | 8.7 | 0.00 | 0.00 | 0.00 | 45 | 1014.0 |
| 20260503195726 | 76 | 38 | 3.5 | 8.7 | 0.00 | 0.00 | 0.00 | 46 | 1014.1 |
| 20260503195233 | 76 | 294 | 3.5 | 8.7 | 0.00 | 0.00 | 0.00 | 46 | 1014.2 |
| 20260503194721 | 76 | 321 | 2.6 | 7.8 | 0.00 | 0.00 | 0.00 | 46 | 1014.3 |
| 20260503194229 | 77 | 317 | 2.6 | 7.8 | 0.00 | 0.00 | 0.00 | 45 | 1014.4 |
| 20260503193737 | 77 | 69 | 2.6 | 6.1 | 0.00 | 0.00 | 0.00 | 46 | 1014.4 |
| 20260503193225 | 77 | 319 | 1.7 | 6.1 | 0.00 | 0.00 | 0.00 | 47 | 1014.5 |
| 20260503192732 | 76 | 313 | 1.7 | 4.3 | 0.00 | 0.00 | 0.00 | 48 | 1014.5 |
| 20260503192300 | 75 | 75 | 0.9 | 8.7 | 0.00 | 0.00 | 0.00 | 50 | 1014.5 |
| 20260503192228 | 75 | 75 | 0.9 | 8.7 | 0.00 | 0.00 | 0.00 | 50 | 1014.5 |
| 20260503191736 | 75 | 267 | 2.6 | 8.7 | 0.00 | 0.00 | 0.00 | 50 | 1014.7 |
| 20260503191228 | 75 | 346 | 1.7 | 7.8 | 0.00 | 0.00 | 0.00 | 49 | 1014.6 |
| 20260503190736 | 75 | 243 | 2.6 | 7.0 | 0.00 | 0.00 | 0.00 | 49 | 1014.7 |
| 20260503190224 | 75 | 346 | 2.6 | 7.0 | 0.00 | 0.00 | 0.00 | 49 | 1014.7 |
| 20260503185731 | 75 | 265 | 1.7 | 6.1 | 0.00 | 0.00 | 0.00 | 50 | 1014.7 |
| 20260503185239 | 74 | 325 | 0.9 | 6.1 | 0.00 | 0.00 | 0.00 | 52 | 1014.7 |
| 20260503184807 | 73 | 298 | 0.9 | 5.2 | 0.00 | 0.00 | 0.00 | 52 | 1014.8 |
| 20260503184224 | 73 | 320 | 3.5 | 5.2 | 0.00 | 0.00 | 0.00 | 51 | 1014.9 |
| 20260503183811 | 73 | 277 | 3.5 | 6.1 | 0.00 | 0.00 | 0.00 | 53 | 1015.0 |
| 20260503183228 | 74 | 318 | 1.7 | 4.3 | 0.00 | 0.00 | 0.00 | 52 | 1014.9 |
| 20260503182735 | 74 | 331 | 0.9 | 3.5 | 0.00 | 0.00 | 0.00 | 54 | 1014.9 |
| 20260503182223 | 73 | 355 | 0.9 | 3.5 | 0.00 | 0.00 | 0.00 | 53 | 1015.0 |
| 20260503181736 | 73 | 33 | 0.9 | 3.5 | 0.00 | 0.00 | 0.00 | 53 | 1015.1 |
| 20260503181223 | 72 | 24 | 0.9 | 7.0 | 0.00 | 0.00 | 0.00 | 55 | 1015.0 |
| 20260503180810 | 72 | 327 | 1.7 | 7.0 | 0.00 | 0.00 | 0.00 | 53 | 1015.0 |
| 20260503180227 | 71 | 338 | 1.7 | 3.5 | 0.00 | 0.00 | 0.00 | 55 | 1015.0 |
| 20260503175734 | 71 | 78 | 1.7 | 4.3 | 0.00 | 0.00 | 0.00 | 54 | 1014.9 |
| 20260503175222 | 70 | 341 | 1.7 | 5.2 | 0.00 | 0.00 | 0.00 | 54 | 1015.1 |
| 20260503174730 | 71 | 11 | 1.7 | 5.2 | 0.00 | 0.00 | 0.00 | 54 | 1015.0 |
| 20260503174238 | 71 | 333 | 1.7 | 5.2 | 0.00 | 0.00 | 0.00 | 53 | 1015.3 |
| 20260503173726 | 70 | 355 | 1.7 | 4.3 | 0.00 | 0.00 | 0.00 | 54 | 1015.1 |
| 20260503173234 | 70 | 304 | 1.7 | 4.3 | 0.00 | 0.00 | 0.00 | 53 | 1015.2 |
| 20260503172725 | 70 | 243 | 1.7 | 4.3 | 0.00 | 0.00 | 0.00 | 54 | 1015.3 |
| 20260503172233 | 70 | 317 | 1.7 | 3.5 | 0.00 | 0.00 | 0.00 | 55 | 1015.3 |
| 20260503171721 | 70 | 288 | 0.9 | 4.3 | 0.00 | 0.00 | 0.00 | 56 | 1015.2 |
| 20260503171309 | 69 | 360 | 0.9 | 3.5 | 0.00 | 0.00 | 0.00 | 55 | 1015.4 |
| 20260503170724 | 69 | 313 | 1.7 | 3.5 | 0.00 | 0.00 | 0.00 | 56 | 1015.3 |
| 20260503170232 | 69 | 51 | 0.9 | 3.5 | 0.00 | 0.00 | 0.00 | 58 | 1015.2 |
| 20260503150722 | 63 | 88 | 0.0 | 0.0 | 0.00 | 0.00 | 0.00 | 71 | 1015.3 |
| 20260503150234 | 62 | 88 | 0.0 | 0.0 | 0.00 | 0.00 | 0.00 | 75 | 1015.2 |
| 20260503140300 | 53 | 88 | 0.0 | 0.0 | 0.00 | 0.00 | 0.00 | 86 | 1015.0 |
| 20260503131240 | 49 | 88 | 0.0 | 1.7 | 0.00 | 0.00 | 0.00 | 90 | 1015.1 |
| 20260503130732 | 49 | 88 | 0.0 | 1.7 | 0.00 | 0.00 | 0.00 | 89 | 1015.1 |
| 20260503130240 | 49 | 88 | 0.0 | 0.9 | 0.00 | 0.00 | 0.00 | 90 | 1015.1 |
| 20260503110739 | 51 | 165 | 0.0 | 0.0 | 0.00 | 0.00 | 0.00 | 86 | 1015.2 |
| 20260503110227 | 51 | 164 | 0.0 | 0.0 | 0.00 | 0.00 | 0.00 | 86 | 1015.1 |
| 20260503090233 | 53 | 165 | 0.0 | 0.0 | 0.00 | 0.00 | 0.00 | 81 | 1015.6 |
| 20260503081303 | 55 | 165 | 0.0 | 0.0 | 0.00 | 0.00 | 0.00 | 77 | 1015.8 |
| 20260503080739 | 55 | 165 | 0.0 | 0.0 | 0.00 | 0.00 | 0.00 | 76 | 1015.8 |
| 20260503080227 | 55 | 164 | 0.0 | 0.0 | 0.00 | 0.00 | 0.00 | 76 | 1015.8 |
| 20260503072737 | 57 | 165 | 0.0 | 0.0 | 0.00 | 0.00 | 0.00 | 72 | 1015.6 |
| 20260503072229 | 57 | 165 | 0.0 | 0.0 | 0.00 | 0.00 | 0.00 | 71 | 1015.6 |
| 20260503071737 | 58 | 165 | 0.0 | 0.0 | 0.00 | 0.00 | 0.00 | 71 | 1015.5 |
| 20260503071225 | 58 | 165 | 0.0 | 0.0 | 0.00 | 0.00 | 0.00 | 70 | 1015.6 |
| 20260503070753 | 59 | 165 | 0.0 | 0.0 | 0.00 | 0.00 | 0.00 | 70 | 1015.5 |
| 20260503070229 | 59 | 165 | 0.0 | 0.0 | 0.00 | 0.00 | 0.00 | 70 | 1015.5 |
| 20260503060231 | 62 | 276 | 0.0 | 0.0 | 0.00 | 0.00 | 0.00 | 59 | 1015.4 |
| 20260503054731 | 62 | 260 | 0.0 | 0.9 | 0.00 | 0.00 | 0.00 | 58 | 1015.4 |
| 20260503054239 | 62 | 260 | 0.0 | 1.7 | 0.00 | 0.00 | 0.00 | 59 | 1015.4 |
| 20260503053727 | 62 | 260 | 0.0 | 1.7 | 0.00 | 0.00 | 0.00 | 59 | 1015.4 |
| 20260503053235 | 63 | 260 | 0.0 | 0.9 | 0.00 | 0.00 | 0.00 | 58 | 1015.3 |
| 20260503052722 | 63 | 261 | 0.0 | 1.7 | 0.00 | 0.00 | 0.00 | 57 | 1015.3 |
| 20260503052230 | 64 | 260 | 0.0 | 1.7 | 0.00 | 0.00 | 0.00 | 57 | 1015.2 |
| 20260503051722 | 65 | 260 | 0.9 | 1.7 | 0.00 | 0.00 | 0.00 | 57 | 1015.1 |
| 20260503051230 | 65 | 295 | 0.0 | 1.7 | 0.00 | 0.00 | 0.00 | 54 | 1015.2 |
| 20260503050738 | 66 | 295 | 0.0 | 1.7 | 0.00 | 0.00 | 0.00 | 51 | 1015.1 |
| 20260503050226 | 66 | 310 | 0.0 | 1.7 | 0.00 | 0.00 | 0.00 | 50 | 1015.2 |
| 20260503045753 | 66 | 313 | 0.0 | 2.6 | 0.00 | 0.00 | 0.00 | 50 | 1015.2 |
| 20260503045721 | 66 | 313 | 0.0 | 2.6 | 0.00 | 0.00 | 0.00 | 50 | 1015.2 |
| 20260503045229 | 66 | 313 | 0.9 | 2.6 | 0.00 | 0.00 | 0.00 | 51 | 1015.1 |
| 20260503044757 | 66 | 283 | 0.0 | 1.7 | 0.00 | 0.00 | 0.00 | 51 | 1015.2 |
| 20260503044234 | 66 | 280 | 0.9 | 2.6 | 0.00 | 0.00 | 0.00 | 52 | 1015.1 |
| 20260503043802 | 66 | 309 | 0.9 | 2.6 | 0.00 | 0.00 | 0.00 | 54 | 1015.1 |
| 20260503043259 | 66 | 327 | 0.0 | 0.9 | 0.00 | 0.00 | 0.00 | 54 | 1015.1 |
| 20260503042734 | 66 | 327 | 0.0 | 1.7 | 0.00 | 0.00 | 0.00 | 55 | 1015.1 |
| 20260503042304 | 66 | 349 | 0.0 | 1.7 | 0.00 | 0.00 | 0.00 | 56 | 1015.1 |
| 20260503041758 | 66 | 349 | 0.0 | 1.7 | 0.00 | 0.00 | 0.00 | 57 | 1015.0 |
| 20260503041235 | 66 | 325 | 0.0 | 1.7 | 0.00 | 0.00 | 0.00 | 57 | 1015.0 |
| 20260503040723 | 66 | 333 | 0.9 | 1.7 | 0.00 | 0.00 | 0.00 | 58 | 1014.9 |
| 20260503040230 | 66 | 294 | 0.0 | 0.9 | 0.00 | 0.00 | 0.00 | 58 | 1014.8 |
| 20260503035721 | 67 | 294 | 0.0 | 0.0 | 0.00 | 0.00 | 0.00 | 58 | 1014.8 |
| 20260503035230 | 67 | 294 | 0.0 | 0.0 | 0.00 | 0.00 | 0.00 | 58 | 1014.7 |
| 20260503034737 | 67 | 294 | 0.0 | 0.0 | 0.00 | 0.00 | 0.00 | 58 | 1014.7 |
| 20260503034225 | 68 | 294 | 0.0 | 0.0 | 0.00 | 0.00 | 0.00 | 57 | 1014.5 |
| 20260503033733 | 68 | 294 | 0.0 | 0.0 | 0.00 | 0.00 | 0.00 | 57 | 1014.4 |
| 20260503033241 | 68 | 294 | 0.0 | 1.7 | 0.00 | 0.00 | 0.00 | 57 | 1014.3 |
| 20260503032728 | 68 | 294 | 0.0 | 1.7 | 0.00 | 0.00 | 0.00 | 56 | 1014.3 |
| 20260503032236 | 69 | 301 | 0.0 | 3.5 | 0.00 | 0.00 | 0.00 | 56 | 1014.3 |
| 20260503031804 | 69 | 342 | 0.9 | 4.3 | 0.00 | 0.00 | 0.00 | 55 | 1014.2 |
| 20260503031240 | 69 | 319 | 0.9 | 4.3 | 0.00 | 0.00 | 0.00 | 55 | 1014.2 |
| 20260503030728 | 69 | 323 | 0.0 | 3.5 | 0.00 | 0.00 | 0.00 | 54 | 1014.1 |
| 20260503030240 | 70 | 325 | 0.9 | 3.5 | 0.00 | 0.00 | 0.00 | 54 | 1014.1 |
| 20260503025727 | 70 | 296 | 0.9 | 4.3 | 0.00 | 0.00 | 0.00 | 54 | 1014.1 |
| 20260503025235 | 70 | 334 | 1.7 | 4.3 | 0.00 | 0.00 | 0.00 | 54 | 1014.2 |
| 20260503024723 | 70 | 323 | 0.9 | 6.1 | 0.00 | 0.00 | 0.00 | 54 | 1014.2 |
| 20260503024311 | 70 | 333 | 2.6 | 6.1 | 0.00 | 0.00 | 0.00 | 53 | 1014.0 |
| 20260503023727 | 71 | 85 | 1.7 | 4.3 | 0.00 | 0.00 | 0.00 | 54 | 1013.9 |
| 20260503023235 | 71 | 324 | 1.7 | 7.8 | 0.00 | 0.00 | 0.00 | 54 | 1014.0 |
| 20260503022722 | 71 | 325 | 1.7 | 7.8 | 0.00 | 0.00 | 0.00 | 54 | 1014.2 |
| 20260503022310 | 72 | 282 | 1.7 | 4.3 | 0.00 | 0.00 | 0.00 | 53 | 1014.1 |
| 20260503022238 | 72 | 282 | 1.7 | 4.3 | 0.00 | 0.00 | 0.00 | 53 | 1014.1 |
| 20260503021726 | 73 | 309 | 1.7 | 5.2 | 0.00 | 0.00 | 0.00 | 52 | 1013.9 |
| 20260503021234 | 73 | 350 | 1.7 | 4.3 | 0.00 | 0.00 | 0.00 | 52 | 1013.9 |
| 20260503020726 | 73 | 340 | 0.9 | 7.0 | 0.00 | 0.00 | 0.00 | 52 | 1014.0 |
| 20260503020234 | 73 | 308 | 1.7 | 6.1 | 0.00 | 0.00 | 0.00 | 51 | 1014.0 |
| 20260503015721 | 74 | 324 | 0.9 | 3.5 | 0.00 | 0.00 | 0.00 | 50 | 1014.0 |
| 20260503015308 | 75 | 360 | 0.9 | 2.6 | 0.00 | 0.00 | 0.00 | 49 | 1014.0 |
| 20260503014805 | 75 | 42 | 0.0 | 3.5 | 0.00 | 0.00 | 0.00 | 49 | 1014.1 |
| 20260503014733 | 75 | 42 | 0.0 | 3.5 | 0.00 | 0.00 | 0.00 | 49 | 1014.1 |
| 20260503014221 | 74 | 324 | 1.7 | 4.3 | 0.00 | 0.00 | 0.00 | 49 | 1014.1 |
| 20260503013729 | 74 | 338 | 0.9 | 6.1 | 0.00 | 0.00 | 0.00 | 49 | 1014.1 |
| 20260503013236 | 74 | 332 | 2.6 | 7.0 | 0.00 | 0.00 | 0.00 | 49 | 1014.1 |
| 20260503012723 | 74 | 355 | 1.7 | 7.8 | 0.00 | 0.00 | 0.00 | 48 | 1014.0 |
| 20260503012231 | 75 | 309 | 3.5 | 7.0 | 0.00 | 0.00 | 0.00 | 48 | 1014.2 |
| 20260503011739 | 75 | 309 | 2.6 | 6.1 | 0.00 | 0.00 | 0.00 | 48 | 1014.2 |
| 20260503011306 | 75 | 307 | 0.9 | 7.0 | 0.00 | 0.00 | 0.00 | 48 | 1014.0 |
| 20260503010723 | 75 | 14 | 2.6 | 7.8 | 0.00 | 0.00 | 0.00 | 48 | 1014.0 |
| 20260503010310 | 75 | 321 | 1.7 | 7.8 | 0.00 | 0.00 | 0.00 | 48 | 1014.0 |
| 20260503005806 | 75 | 309 | 2.6 | 7.0 | 0.00 | 0.00 | 0.00 | 47 | 1014.1 |
| 20260503005227 | 75 | 11 | 0.9 | 7.8 | 0.00 | 0.00 | 0.00 | 48 | 1014.1 |
| 20260503004735 | 75 | 312 | 3.5 | 7.8 | 0.00 | 0.00 | 0.00 | 47 | 1014.1 |
| 20260503004223 | 76 | 309 | 1.7 | 4.3 | 0.00 | 0.00 | 0.00 | 47 | 1014.2 |
| 20260503003731 | 75 | 327 | 1.7 | 8.7 | 0.00 | 0.00 | 0.00 | 48 | 1014.2 |
| 20260503003259 | 75 | 10 | 3.5 | 8.7 | 0.00 | 0.00 | 0.00 | 48 | 1014.3 |
| 20260503003227 | 75 | 10 | 3.5 | 8.7 | 0.00 | 0.00 | 0.00 | 48 | 1014.3 |
| 20260503002734 | 75 | 360 | 1.7 | 7.8 | 0.00 | 0.00 | 0.00 | 48 | 1014.3 |
| 20260503002222 | 75 | 302 | 1.7 | 8.7 | 0.00 | 0.00 | 0.00 | 48 | 1014.4 |
| 20260503001730 | 75 | 252 | 3.5 | 9.6 | 0.00 | 0.00 | 0.00 | 48 | 1014.2 |
| 20260503001257 | 75 | 303 | 2.6 | 9.6 | 0.00 | 0.00 | 0.00 | 47 | 1014.2 |
| 20260503000734 | 75 | 323 | 4.3 | 9.6 | 0.00 | 0.00 | 0.00 | 48 | 1014.3 |
| 20260503000222 | 76 | 267 | 3.5 | 7.8 | 0.00 | 0.00 | 0.00 | 46 | 1014.3 |
| 20260502235729 | 75 | 254 | 1.7 | 5.2 | 0.00 | 0.00 | 0.00 | 48 | 1014.3 |
| 20260502235221 | 75 | 35 | 1.7 | 6.1 | 0.00 | 0.00 | 0.00 | 48 | 1014.4 |
| 20260502234729 | 75 | 300 | 1.7 | 8.7 | 0.00 | 0.00 | 0.00 | 48 | 1014.4 |
| 20260502234237 | 75 | 9 | 2.6 | 8.7 | 0.00 | 0.00 | 0.00 | 48 | 1014.6 |
| 20260502233725 | 75 | 334 | 1.7 | 8.7 | 0.00 | 0.00 | 0.00 | 48 | 1014.8 |
| 20260502233312 | 75 | 263 | 1.7 | 10.4 | 0.00 | 0.00 | 0.00 | 49 | 1014.8 |
| 20260502232808 | 75 | 288 | 4.3 | 10.4 | 0.00 | 0.00 | 0.00 | 47 | 1014.8 |
| 20260502232224 | 75 | 315 | 2.6 | 7.0 | 0.00 | 0.00 | 0.00 | 48 | 1015.0 |
| 20260502231812 | 75 | 56 | 2.6 | 7.0 | 0.00 | 0.00 | 0.00 | 49 | 1015.1 |
| 20260502231228 | 75 | 266 | 1.7 | 7.0 | 0.00 | 0.00 | 0.00 | 50 | 1015.2 |
| 20260502230736 | 74 | 309 | 2.6 | 7.8 | 0.00 | 0.00 | 0.00 | 50 | 1015.2 |
| 20260502230304 | 74 | 304 | 2.6 | 7.8 | 0.00 | 0.00 | 0.00 | 50 | 1015.1 |
| 20260502230232 | 74 | 304 | 2.6 | 7.8 | 0.00 | 0.00 | 0.00 | 50 | 1015.1 |
| 20260502225739 | 75 | 274 | 1.7 | 7.0 | 0.00 | 0.00 | 0.00 | 51 | 1015.3 |
| 20260502225226 | 74 | 278 | 1.7 | 8.7 | 0.00 | 0.00 | 0.00 | 52 | 1015.4 |
| 20260502224734 | 74 | 331 | 4.3 | 8.7 | 0.00 | 0.00 | 0.00 | 51 | 1015.4 |
| 20260502224226 | 74 | 97 | 2.6 | 8.7 | 0.00 | 0.00 | 0.00 | 53 | 1015.5 |
| 20260502223734 | 74 | 328 | 2.6 | 9.6 | 0.00 | 0.00 | 0.00 | 54 | 1015.4 |
| 20260502223241 | 74 | 321 | 2.6 | 4.3 | 0.00 | 0.00 | 0.00 | 55 | 1015.5 |
| 20260502222728 | 73 | 297 | 1.7 | 7.8 | 0.00 | 0.00 | 0.00 | 56 | 1015.6 |
| 20260502222234 | 72 | 321 | 2.6 | 7.8 | 0.00 | 0.00 | 0.00 | 56 | 1015.8 |
| 20260502221721 | 72 | 324 | 2.6 | 10.4 | 0.00 | 0.00 | 0.00 | 56 | 1015.9 |
| 20260502221229 | 72 | 10 | 5.2 | 10.4 | 0.00 | 0.00 | 0.00 | 56 | 1015.8 |
| 20260502220737 | 72 | 360 | 2.6 | 10.4 | 0.00 | 0.00 | 0.00 | 55 | 1015.8 |
| 20260502220225 | 72 | 313 | 3.5 | 9.6 | 0.00 | 0.00 | 0.00 | 55 | 1015.9 |
| 20260502215736 | 72 | 317 | 2.6 | 7.8 | 0.00 | 0.00 | 0.00 | 56 | 1016.1 |
| 20260502215224 | 72 | 298 | 3.5 | 8.7 | 0.00 | 0.00 | 0.00 | 56 | 1016.1 |
| 20260502214731 | 72 | 311 | 3.5 | 8.7 | 0.00 | 0.00 | 0.00 | 55 | 1016.0 |
| 20260502214239 | 72 | 297 | 2.6 | 8.7 | 0.00 | 0.00 | 0.00 | 55 | 1015.9 |
| 20260502213726 | 72 | 286 | 3.5 | 8.7 | 0.00 | 0.00 | 0.00 | 55 | 1016.0 |
| 20260502213234 | 72 | 348 | 3.5 | 8.7 | 0.00 | 0.00 | 0.00 | 55 | 1016.2 |
| 20260502212801 | 72 | 15 | 3.5 | 8.7 | 0.00 | 0.00 | 0.00 | 54 | 1016.3 |
| 20260502212237 | 73 | 321 | 3.5 | 6.1 | 0.00 | 0.00 | 0.00 | 54 | 1016.3 |
| 20260502211725 | 73 | 305 | 2.6 | 4.3 | 0.00 | 0.00 | 0.00 | 55 | 1016.4 |